[[{"header":{"parameterUnit":"m.s-1","parameterCategory":1,"la1":30.2991,"la2":30.254,"lo1":-89.0895,"lo2":-89.0444,"dy":0.0017,"dx":0.0017,"nx":28,"ny":28,"refTime":"2026-03-03T03:00:00:Z","depth":0,"parameterNumber":2,"parameterNumberName":"U-component_of_WINDS"},"data":[0,0,0,0,0,0,0,0,0,0,0,0,0,0,0,0,0,0,0,0,0,0,0,0,0,0,0,0,0,0,0,0,0,0,0,0,0,0,0,0,0,0,0,0,0,0,0,0,0,0,0,0,0,0,0,0,0,0,-4.32,-4.32,0,-4.3233,-4.3234,-4.3234,-4.3165,-4.3163,-4.3161,-4.3159,-4.3192,-4.3195,-4.3198,0,0,0,0,0,0,0,0,0,0,0,0,0,-4.3078,-4.308,-4.32,-4.32,-4.3201,-4.3233,-4.3234,-4.3234,-4.3166,-4.3163,-4.316,-4.3158,-4.3191,-4.3195,-4.3198,0,0,0,0,0,0,0,0,0,0,0,0,0,-4.3123,-4.3081,-4.32,-4.317,-4.3168,-4.3233,-4.3234,-4.3234,-4.3166,-4.3163,-4.3159,-4.3156,-4.319,-4.3194,-4.3199,-4.3294,0,0,-4.3213,-4.3214,0,0,0,0,0,0,0,0,-4.312,-4.3128,-4.3174,-4.3173,-4.317,-4.3192,-4.3203,-4.3254,-4.3167,-4.3167,-4.3159,-4.3155,-4.3195,-4.3199,-4.3212,-4.3295,-4.3297,-4.3213,-4.3216,-4.3218,-4.3219,0,0,0,0,0,0,0,-4.3117,-4.3126,-4.3213,-4.3175,-4.3173,-4.3156,-4.3159,-4.3212,-4.3199,-4.3167,-4.3162,-4.3167,-4.3193,-4.3208,-4.3212,-4.3297,-4.3213,-4.3217,-4.322,-4.3221,-4.3461,-4.3464,0,0,0,0,0,0,-4.3118,-4.3124,-4.3212,-4.3214,-4.3137,-4.3161,-4.3164,-4.3188,-4.3198,-4.3197,-4.317,-4.3163,-4.3202,-4.3207,-4.3213,-4.3325,-4.3218,-4.3222,-4.3224,-4.3457,-4.3461,-4.3465,0,0,0,0,0,0,-4.3116,-4.3127,-4.321,-4.3167,-4.3177,-4.3167,-4.3194,-4.3191,-4.3205,-4.3201,-4.3198,-4.3187,-4.32,-4.3207,-4.3274,-4.3325,-4.3224,-4.3228,-4.3453,-4.3458,-4.3463,-4.3549,0,0,0,0,0,0,-4.3112,-4.3126,-4.3161,-4.3169,-4.3179,-4.3271,-4.3197,-4.3194,-4.3213,-4.3206,-4.3217,-4.3215,-4.3198,-4.3268,-4.3279,-4.3329,-4.3231,-4.3448,-4.3455,-4.3462,-4.3541,-4.3556,-4.3569,0,0,0,0,0,-4.3108,-4.3184,-4.3164,-4.3175,-4.3224,-4.3274,-4.328,-4.3258,-4.3218,-4.3253,-4.3251,-4.3215,-4.3319,-4.3276,-4.3287,-4.334,-4.3445,-4.3453,-4.3461,-4.3535,-4.3553,-4.3569,0,0,0,0,0,0,-4.3182,-4.3184,-4.3162,-4.3242,-4.3258,-4.3262,-4.3306,-4.3279,-4.3306,-4.3298,-4.327,-4.3273,-4.3346,-4.335,-4.3302,-4.3433,-4.3375,-4.3386,-4.3427,-4.3444,-4.3458,-4.3455,-4.3235,0,0,0,0,0,-4.3208,-4.3248,-4.3248,-4.3319,-4.3328,-4.3316,-4.3337,-4.332,-4.3335,-4.3342,-4.3344,-4.3361,-4.3397,-4.3421,-4.3454,-4.3543,-4.3544,-4.3585,-4.3599,-4.361,-4.362,-4.3667,-4.3685,-4.3493,-4.3493,-4.3492,0,0,-4.326,-4.3267,-4.3294,-4.3334,-4.3344,-4.3387,-4.3322,-4.337,-4.3402,-4.3349,-4.3412,-4.3415,-4.3432,-4.351,-4.3545,-4.3516,-4.3674,-4.3621,-4.363,-4.3633,-4.3677,-4.3696,-4.3712,-4.3498,-4.3497,-4.3496,0,0,-4.3378,-4.3388,-4.3448,-4.346,-4.3478,-4.347,-4.3485,-4.3493,-4.3493,-4.3557,-4.3519,-4.3556,-4.3619,-4.3633,-4.3648,-4.3776,-4.3743,-4.3788,-4.386,-4.3907,-4.3922,-4.3935,-4.398,-4.3996,-4.3797,-4.3797,-4.3797,0,-4.3441,-4.3504,-4.3482,-4.3533,-4.3552,-4.3508,-4.3568,-4.3582,-4.3609,-4.3623,-4.3591,-4.367,-4.3679,-4.376,-4.3791,-4.3805,-4.3821,-4.3785,-4.3921,-4.3935,-4.3947,-4.3989,-4.4006,-4.3802,-4.3802,-4.3801,-4.3801,0,-4.3581,-4.3626,-4.3672,-4.3701,-4.3725,-4.3781,-4.3767,-4.3795,-4.3777,-4.3772,-4.3838,-4.3848,-4.3882,-4.3901,-4.3882,-4.398,-4.3961,-4.3926,-4.3867,-4.397,-4.4009,-4.4026,-4.381,-4.3808,-4.3806,-4.3805,0,0,-4.3743,-4.376,-4.3778,-4.379,-4.3808,-4.3842,-4.3897,-4.3931,-4.3955,-4.3977,-4.4022,-4.4078,-4.4046,-4.4063,-4.4047,-4.4088,-4.4188,-4.4048,-4.4048,-4.4072,-4.4296,-4.4321,-4.434,-4.4168,-4.4171,-4.4174,-4.4294,0,-4.3859,-4.3952,-4.3935,-4.4026,-4.4067,-4.4028,-4.4076,-4.4092,-4.4091,-4.4125,-4.4124,-4.4164,-4.4119,-4.4129,-4.4168,-4.4167,-4.4232,-4.4159,-4.4209,-4.4211,-4.4204,-4.436,-4.4387,-4.45,-4.4309,-4.4312,-4.4314,0,-4.4006,-4.4034,-4.4129,-4.4142,-4.4158,-4.4201,-4.4232,-4.4266,-4.4285,-4.4281,-4.4302,-4.4279,-4.4334,-4.4277,-4.4352,-4.4303,-4.4323,-4.4326,-4.433,-4.4332,-4.4267,-4.4365,-4.4535,-4.4551,-4.4338,-4.4336,-4.4334,0,-4.4113,-4.4174,-4.4239,-4.4252,-4.4268,-4.43,-4.4308,-4.4323,-4.4346,-4.4374,-4.4388,-4.4422,-4.444,-4.4467,-4.4454,-4.4413,-4.4532,-4.4473,-4.453,-4.453,-4.4554,-4.4552,-4.4728,-4.4571,-4.4571,-4.457,-4.457,0,-4.4243,-4.4302,-4.4288,-4.4328,-4.4394,-4.4375,-4.4441,-4.4445,-4.4459,-4.4499,-4.4469,-4.4507,-4.4488,-4.4526,-4.4516,-4.458,-4.4589,-4.4587,-4.4583,-4.4589,-4.4589,-4.4599,-4.4591,-4.4575,-4.4574,-4.4573,-4.4572,0,-4.4372,-4.4364,-4.4433,-4.4444,-4.4448,-4.4497,-4.4506,-4.4544,-4.4541,-4.4593,-4.4604,-4.46,-4.4643,-4.4633,-4.468,-4.4673,-4.4754,-4.4741,-4.4747,-4.4743,-4.48,-4.4794,-4.4987,-4.5011,-4.484,-4.4842,-4.4843,0,-4.4454,-4.4499,-4.4516,-4.4541,-4.4552,-4.4592,-4.4615,-4.46,-4.4625,-4.4651,-4.4686,-4.4726,-4.4757,-4.4828,-4.4829,-4.4865,-4.4852,-4.4917,-4.4857,-4.4861,-4.4851,-4.4848,-4.4852,-4.4928,-4.493,-4.4932,-4.4933,0,-4.46,-4.4595,-4.4629,-4.4664,-4.4693,-4.4719,-4.4742,-4.4765,-4.4751,-4.4781,-4.4825,-4.485,-4.4898,-4.4939,-4.4973,-4.4981,-4.4955,-4.4953,-4.4967,-4.4972,-4.4973,-4.4972,-4.4778,-4.4948,-4.4946,-4.4945,-4.4944,-4.4944,-4.4707,-4.4745,-4.4764,-4.4804,-4.482,-4.4843,-4.4879,-4.4882,-4.4919,-4.4957,-4.4946,-4.4996,-4.5015,-4.5058,-4.5072,-4.5111,-4.5086,-4.5108,-4.5113,-4.5118,-4.5124,-4.4969,-4.5117,-4.5117,-4.5116,-4.5116,-4.5116,0,-4.485,-4.4861,-4.4898,-4.4932,-4.4964,-4.4939,-4.4964,-4.4992,-4.5036,-4.5057,-4.5089,-4.514,-4.518,-4.5186,-4.5224,-4.5254,-4.5243,-4.5264,-4.5261,-4.5263,-4.5145,-4.5127,-4.5273,-4.5273,-4.5273,-4.5272,-4.5272,-4.5272,-4.4928,-4.4992,-4.499,-4.5062,-4.5072,-4.5121,-4.5138,-4.5159,-4.5176,-4.5234,-4.5267,-4.5271,-4.5286,-4.5326,-4.5361,-4.5362,-4.5377,-4.5403,-4.5399,-4.5287,-4.5271,-4.5256,-4.524,-4.5406,-4.5407,-4.5513,-4.5514,-4.5515]},{"header":{"parameterUnit":"m.s-1","parameterCategory":1,"la1":30.2991,"la2":30.254,"lo1":-89.0895,"lo2":-89.0444,"dy":0.0017,"dx":0.0017,"nx":28,"ny":28,"refTime":"2026-03-03T03:00:00:Z","depth":0,"parameterNumber":3,"parameterNumberName":"V-component_of_WINDS"},"data":[0,0,0,0,0,0,0,0,0,0,0,0,0,0,0,0,0,0,0,0,0,0,0,0,0,0,0,0,0,0,0,0,0,0,0,0,0,0,0,0,0,0,0,0,0,0,0,0,0,0,0,0,0,0,0,0,0,0,1.2778,1.2778,0,1.276,1.276,1.276,1.2758,1.2759,1.2759,1.2759,1.2737,1.2736,1.2735,0,0,0,0,0,0,0,0,0,0,0,0,0,1.281,1.2809,1.2778,1.2778,1.2778,1.276,1.276,1.276,1.2758,1.2759,1.2759,1.2759,1.2737,1.2736,1.2735,0,0,0,0,0,0,0,0,0,0,0,0,0,1.2794,1.2809,1.2778,1.2775,1.2775,1.276,1.276,1.2759,1.2758,1.2759,1.2759,1.2759,1.2737,1.2736,1.2735,1.2721,0,0,1.2731,1.273,0,0,0,0,0,0,0,0,1.2795,1.2793,1.2776,1.2775,1.2775,1.2762,1.2763,1.2746,1.2758,1.2764,1.2759,1.2759,1.2744,1.2743,1.2738,1.272,1.2719,1.2731,1.273,1.273,1.2729,0,0,0,0,0,0,0,1.2796,1.2794,1.2771,1.2776,1.2775,1.2774,1.2772,1.276,1.2753,1.2764,1.2764,1.2762,1.2744,1.274,1.2738,1.2718,1.2731,1.273,1.2729,1.2729,1.269,1.2689,0,0,0,0,0,0,1.2798,1.2795,1.2771,1.277,1.2786,1.2773,1.2771,1.2766,1.2753,1.2751,1.2762,1.2762,1.2741,1.2739,1.2737,1.2721,1.273,1.2729,1.2728,1.269,1.269,1.2689,0,0,0,0,0,0,1.2799,1.2796,1.2772,1.2783,1.2779,1.2772,1.2766,1.2765,1.276,1.2751,1.275,1.2758,1.2742,1.2739,1.2726,1.272,1.2728,1.2727,1.269,1.269,1.269,1.2689,0,0,0,0,0,0,1.28,1.2796,1.2791,1.2782,1.2779,1.2761,1.2766,1.2765,1.2759,1.2759,1.2748,1.2746,1.2742,1.2727,1.2724,1.2719,1.2726,1.2691,1.269,1.269,1.2689,1.2688,1.2688,0,0,0,0,0,1.2801,1.279,1.2791,1.2788,1.2772,1.2761,1.2759,1.2755,1.2758,1.2753,1.2748,1.2746,1.2722,1.2726,1.2723,1.2717,1.2691,1.269,1.269,1.269,1.2689,1.2688,0,0,0,0,0,0,1.2796,1.2789,1.279,1.2776,1.277,1.2761,1.2754,1.2754,1.2745,1.2746,1.274,1.2738,1.2725,1.272,1.2725,1.2704,1.2707,1.2705,1.2708,1.2707,1.2706,1.2707,1.2725,0,0,0,0,0,1.2794,1.2787,1.278,1.2769,1.2766,1.2761,1.2755,1.2754,1.2746,1.2743,1.2736,1.2728,1.2719,1.2712,1.2703,1.2689,1.2687,1.2683,1.2682,1.2682,1.268,1.2674,1.2673,1.2687,1.2687,1.2687,0,0,1.2788,1.2784,1.2779,1.2768,1.2762,1.2755,1.2758,1.2749,1.2743,1.2741,1.2729,1.2724,1.2715,1.2702,1.2695,1.2696,1.2677,1.2681,1.2681,1.2679,1.2674,1.2672,1.2671,1.2687,1.2687,1.2687,0,0,1.2775,1.277,1.2761,1.2757,1.275,1.2747,1.2745,1.2737,1.2734,1.2723,1.2722,1.2715,1.2698,1.2692,1.2687,1.2675,1.2674,1.2672,1.2667,1.2661,1.266,1.2659,1.2656,1.2654,1.267,1.267,1.267,0,1.2768,1.2757,1.2756,1.2748,1.2743,1.2744,1.2735,1.273,1.272,1.2717,1.2719,1.27,1.2694,1.268,1.2678,1.2673,1.2671,1.2672,1.2661,1.266,1.2659,1.2655,1.2654,1.267,1.267,1.267,1.267,0,1.275,1.2743,1.2736,1.2729,1.2724,1.2715,1.2712,1.2707,1.2707,1.2704,1.2693,1.2686,1.2676,1.2673,1.2671,1.266,1.2661,1.2662,1.2665,1.2657,1.2654,1.2653,1.267,1.267,1.267,1.267,0,0,1.273,1.2725,1.2723,1.2721,1.2714,1.2708,1.27,1.2693,1.2689,1.2682,1.2676,1.2664,1.2666,1.266,1.2658,1.2652,1.2645,1.2654,1.2654,1.2653,1.2633,1.2633,1.2631,1.2645,1.2644,1.2644,1.2635,0,1.2716,1.2703,1.2703,1.2691,1.2685,1.2687,1.268,1.2676,1.2673,1.2667,1.2664,1.2656,1.2659,1.2656,1.2651,1.2647,1.2641,1.2648,1.2638,1.2638,1.2641,1.263,1.2628,1.2619,1.2633,1.2633,1.2633,0,1.2697,1.2693,1.2681,1.2678,1.2676,1.267,1.2664,1.2659,1.2654,1.2653,1.2648,1.2648,1.264,1.2644,1.2633,1.2638,1.2634,1.2632,1.2632,1.263,1.2635,1.2628,1.2616,1.2615,1.2631,1.2631,1.2631,0,1.2685,1.2676,1.2669,1.2667,1.2663,1.2659,1.2657,1.2653,1.2649,1.2644,1.2642,1.2636,1.2632,1.2627,1.2625,1.2628,1.2615,1.2618,1.2614,1.2614,1.261,1.261,1.2598,1.2608,1.2608,1.2608,1.2608,0,1.2669,1.2662,1.2664,1.2659,1.2651,1.2652,1.2644,1.2642,1.2639,1.2634,1.2635,1.263,1.2628,1.2622,1.2621,1.2613,1.2611,1.261,1.2609,1.261,1.261,1.2607,1.2607,1.2607,1.2608,1.2608,1.2608,0,1.2654,1.2655,1.2647,1.2645,1.2645,1.2639,1.2638,1.2633,1.2633,1.2626,1.2625,1.2623,1.2617,1.2615,1.2607,1.2606,1.2597,1.2597,1.2599,1.2599,1.2595,1.2596,1.258,1.2578,1.2589,1.2589,1.2589,0,1.2644,1.2639,1.2638,1.2636,1.2634,1.263,1.2627,1.2628,1.2625,1.2621,1.2617,1.2612,1.2608,1.2599,1.2596,1.2591,1.2591,1.2586,1.2589,1.2591,1.2591,1.2592,1.2592,1.2584,1.2584,1.2584,1.2584,0,1.2626,1.2628,1.2624,1.2622,1.2619,1.2617,1.2614,1.2612,1.2613,1.261,1.2605,1.2602,1.2596,1.2591,1.2586,1.2583,1.2584,1.2583,1.2582,1.2582,1.2584,1.2584,1.2598,1.2583,1.2583,1.2583,1.2584,1.2584,1.2613,1.261,1.2609,1.2606,1.2605,1.2604,1.2601,1.2601,1.2597,1.2593,1.2594,1.2589,1.2587,1.2581,1.2578,1.2574,1.2575,1.2573,1.2573,1.2572,1.2573,1.2585,1.2573,1.2573,1.2573,1.2573,1.2573,0,1.2596,1.2597,1.2594,1.2592,1.259,1.2594,1.2592,1.259,1.2586,1.2584,1.2581,1.2577,1.2573,1.2571,1.2567,1.2565,1.2565,1.2563,1.2564,1.2563,1.2571,1.2573,1.2563,1.2563,1.2563,1.2563,1.2563,1.2563,1.2587,1.2582,1.2584,1.2578,1.2579,1.2576,1.2575,1.2574,1.2573,1.2568,1.2566,1.2566,1.2564,1.2561,1.2558,1.2557,1.2556,1.2554,1.2554,1.2561,1.2562,1.2563,1.2565,1.2554,1.2554,1.2547,1.2547,1.2547]}]]